Starlink 11310

operational
NORAD ID: 61212 Int'l Des: 2024-171 Owner: SPXS Country: US Constellation: starlink
LEOCIRCULAR

关于 Starlink 11310

正在加载描述...

实时位置

正在加载3D地球...

即将过境

高度历史

Altitude vs Time

uPlot chart will show altitude changes over time

两行轨道根数

1 61212U 24171N 25305.13025641 .00001145 00000-0 14304-4 0 9991
2 61212 53.1574 90.2583 0000893 81.1408 278.9711 15.69714282 64200
Epoch: Nov 1, 2025 • Age: 19 hours

当前状态

高度 362.2 km
速度 7.69 km/s
星下点 -7.91°S, 103.2°W
发射日期 Sep 20, 2024
运行时间 1.1 years
类型 internet

技术详情

分类 Payload
质量 960.00 kg
干质量 910.00 kg
总质量 960.00 kg
长度 0.30 m
直径 4.10 m
跨度 29.00 m
形状 Box + pan
制造商 SPXS
平台类型 Starlink V2MD
阶段状态 In Orbit
所有者/国家 SPXS/US

大型星座

Loading constellations...